Regional Weather Roundup
Issued by NWS Huntsville, AL

Current Version | Previous Version | Text Only | Print | Product List | Glossary On
Versions: 1 2 3 4 5 6 7 8 9 10 11 12 13 14 15 16 17 18 19 20 21 22 23 24 25 26 27 28 29 30 31 32 33 34 35 36 37 38 39 40 41 42 43 44 45 46 47 48 49 50
000
ASUS44 KHUN 061910
RWRHUN

WEATHER ROUNDUP FOR THE TENNESSEE VALLEY
NATIONAL WEATHER SERVICE HUNTSVILLE AL
200 PM CDT WED MAY 06 2015

ALZ001>004-062000-
NORTHWEST ALABAMA

CITY           SKY/WX    TMP DP  RH WIND       PRES   REMARKS
COURTLAND HCN    N/A     81 N/A N/A SE7         N/A
RUSSELLVILLE     N/A     79 N/A N/A MISG        N/A
SHOALS AIRPORT MOSUNNY   82  50  32 SE7       30.15F
$$

ALZ005>007-016-062000-
NORTH CENTRAL ALABAMA

CITY           SKY/WX    TMP DP  RH WIND       PRES   REMARKS
DECATUR AP     PTSUNNY   79  52  38 E10       30.15F
HUNTSVILLE AP  MOSUNNY   84  48  28 E6        30.15F
HUN NWS/UAH      N/A     82  47  29 SE6         N/A
MERIDIANVILLE  SUNNY     81  36  19 S9        30.15F
REDSTONE ARSN  MOSUNNY   81  52  36 VRB7      30.14F
VINEMONT AP    FAIR      79  53  40 CALM      30.18F
$$

ALZ008>010-062000-
NORTHEAST ALABAMA

CITY           SKY/WX    TMP DP  RH WIND       PRES   REMARKS
ALBERTVILLE    MOSUNNY   79  59  50 S7        30.16F
FORT PAYNE     MOSUNNY   79  45  29 E7        30.16S
SCOTTSBORO HCN   N/A     82 N/A N/A MISG        N/A
VALLEY HEAD      N/A     79 N/A N/A MISG        N/A
$$

TNZ076-096-097-062000-
SOUTHEASTERN MIDDLE TENNESSEE

CITY           SKY/WX    TMP DP  RH WIND       PRES   REMARKS
TULLAHOMA      MOSUNNY   81  48  32 CALM      30.16F
WINCHESTER     SUNNY     82  54  36 SE9       30.16F
$$

...SURROUNDING SITES...

CITY           SKY/WX    TMP DP  RH WIND       PRES   REMARKS
ATLANTA        MOSUNNY   79  54  41 NE7       30.16F
ANNISTON       SUNNY     81  51  35 VRB3      30.15F
BIRMINGHAM     MOSUNNY   78  53  41 SE8       30.16F
CHATTANOOGA    MOSUNNY   82  52  35 CALM      30.15F
CORINTH        FAIR      82  48  30 SE13G20   30.11F
DALTON         SUNNY     79  55  44 W5        30.15F
GADSDEN        MOSUNNY   81  52  36 S3        30.14F
GOLDEN TRNGL   PTSUNNY   81  52  36 SE9       30.11F
HALEYVILLE       N/A     80  54  40 MISG      30.17F
JACKSON TN     MOSUNNY   84  54  35 SE9       30.11F
MEMPHIS        PTSUNNY   85  53  33 S10       30.10F
NASHVILLE      MOSUNNY   85  55  35 E3        30.15F
OXFORD MS      FAIR      81  50  34 E8G16     30.12F
ROME           PTSUNNY   82  53  36 E6        30.14F
SAVANNAH       SUNNY     82  32  16 S10       30.13F
TUPELO         MOSUNNY   83  50  31 VRB5      30.11F
TUSCALOOSA     MOSUNNY   82  59  45 VRB7      30.12F
$$

...GULF COAST WEATHER...

CITY           SKY/WX    TMP DP  RH WIND       PRES   REMARKS
GULFPORT       MOSUNNY   79  68  69 SE18      30.07F
PASCAGOULA     PTSUNNY   81  67  62 SE14      30.08F
MOBILE         PTSUNNY   82  61  48 SE7       30.09F
GULF SHORES    CLEAR     79  64  59 SE12G18   30.09F
PENSACOLA      MOSUNNY   79  63  57 SE10      30.09F
DESTIN         SUNNY     80  63  55 SW8       30.09F
PANAMA CITY    DRIZZLE   81  64  57 SW10      30.07F
APPALACHICOLA  SUNNY     83  66  56 SE10      30.08F
$$




USA.gov is the U.S. government's official web portal to all federal, state and local government web resources and services.